Time,TemperatureF,DewpointF,PressureIn,WindDirection,WindDirectionDegrees,WindSpeedMPH,WindSpeedGustMPH,Humidity,HourlyPrecipIn,Conditions,Clouds,dailyrainin,SoftwareType,DateUTC
2013-05-17 20:41:00,62.4,19.6,29.71,NE,45,0.0,0.0,19,0.00,,SKC,0.00,VWS V14.01,2013-05-18 00:41:00,
2013-05-17 20:46:00,62.2,21.9,29.71,NE,45,0.0,0.0,21,0.00,,SKC,0.00,VWS V14.01,2013-05-18 00:46:00,
2013-05-17 20:51:00,61.9,21.5,29.71,NE,45,0.0,0.0,21,0.00,,SKC,0.00,VWS V14.01,2013-05-18 00:51:00,
2013-05-17 20:56:00,61.7,21.4,29.71,NE,45,0.0,0.0,21,0.00,,SKC,0.00,VWS V14.01,2013-05-18 00:56:00,
2013-05-17 21:01:00,61.3,21.1,29.71,NE,45,0.0,0.0,21,0.00,,SKC,0.00,VWS V14.01,2013-05-18 01:01:00,
2013-05-17 21:06:00,61.3,21.1,29.71,NE,45,0.0,0.0,21,0.00,,SKC,0.00,VWS V14.01,2013-05-18 01:06:00,
2013-05-17 21:11:00,61.0,20.8,29.71,NE,45,0.0,0.0,21,0.00,,SKC,0.00,VWS V14.01,2013-05-18 01:11:00,
2013-05-17 21:16:00,61.0,24.0,29.71,NE,45,0.0,0.0,24,0.00,,SKC,0.00,VWS V14.01,2013-05-18 01:16:00,
2013-05-17 21:21:00,60.8,20.6,29.71,NE,45,0.0,0.0,21,0.00,,SKC,0.00,VWS V14.01,2013-05-18 01:21:00,
2013-05-17 21:26:00,60.6,21.6,29.71,NE,45,0.0,0.0,22,0.00,,SKC,0.00,VWS V14.01,2013-05-18 01:26:00,
2013-05-17 21:31:00,60.4,21.4,29.71,NE,45,0.0,0.0,22,0.00,,SKC,0.00,VWS V14.01,2013-05-18 01:31:00,
2013-05-17 21:36:00,60.1,21.1,29.71,NE,45,0.0,0.0,22,0.00,,SKC,0.00,VWS V14.01,2013-05-18 01:36:00,
2013-05-17 21:41:00,59.7,22.9,29.71,NE,45,0.0,0.0,24,0.00,,SKC,0.00,VWS V14.01,2013-05-18 01:41:00,
2013-05-17 21:46:00,59.5,22.7,29.71,NE,45,0.0,0.0,24,0.00,,SKC,0.00,VWS V14.01,2013-05-18 01:46:00,
2013-05-17 21:51:00,59.2,22.4,29.71,NE,45,0.0,0.0,24,0.00,,SKC,0.00,VWS V14.01,2013-05-18 01:51:00,
2013-05-17 21:56:00,59.0,22.3,29.74,NE,45,0.0,0.0,24,0.00,,SKC,0.00,VWS V14.01,2013-05-18 01:56:00,
2013-05-17 22:01:00,58.8,22.1,29.74,NE,45,0.0,0.0,24,0.00,,SKC,0.00,VWS V14.01,2013-05-18 02:01:00,
2013-05-17 22:06:00,58.6,22.0,29.74,NE,45,0.0,0.0,24,0.00,,SKC,0.00,VWS V14.01,2013-05-18 02:06:00,
2013-05-17 22:11:00,58.5,21.8,29.71,NE,45,0.0,0.0,24,0.00,,SKC,0.00,VWS V14.01,2013-05-18 02:11:00,
2013-05-17 22:16:00,58.3,22.6,29.71,NE,45,0.0,0.0,25,0.00,,SKC,0.00,VWS V14.01,2013-05-18 02:16:00,
2013-05-17 22:21:00,58.1,22.5,29.71,NE,45,0.0,0.0,25,0.00,,SKC,0.00,VWS V14.01,2013-05-18 02:21:00,
2013-05-17 22:26:00,57.9,22.3,29.74,NE,45,0.0,0.0,25,0.00,,SKC,0.00,VWS V14.01,2013-05-18 02:26:00,
2013-05-17 22:31:00,57.6,22.0,29.74,NE,45,0.0,0.0,25,0.00,,SKC,0.00,VWS V14.01,2013-05-18 02:31:00,
2013-05-17 22:36:00,57.4,21.9,29.74,NE,45,0.0,0.0,25,0.00,,SKC,0.00,VWS V14.01,2013-05-18 02:36:00,
2013-05-17 22:41:00,57.2,21.7,29.74,NE,45,0.0,0.0,25,0.00,,SKC,0.00,VWS V14.01,2013-05-18 02:41:00,
2013-05-17 22:46:00,56.8,22.3,29.74,NE,45,0.0,0.0,26,0.00,,SKC,0.00,VWS V14.01,2013-05-18 02:46:00,
2013-05-17 22:51:00,56.5,22.0,29.74,NE,45,0.0,0.0,26,0.00,,SKC,0.00,VWS V14.01,2013-05-18 02:51:00,
2013-05-17 22:56:00,55.9,21.6,29.74,NE,45,0.0,0.0,26,0.00,,SKC,0.00,VWS V14.01,2013-05-18 02:56:00,
2013-05-17 23:01:00,55.8,22.3,29.74,NE,45,0.0,0.0,27,0.00,,SKC,0.00,VWS V14.01,2013-05-18 03:01:00,
2013-05-17 23:06:00,55.4,22.0,29.74,NE,45,0.0,0.0,27,0.00,,SKC,0.00,VWS V14.01,2013-05-18 03:06:00,
2013-05-17 23:11:00,55.0,22.5,29.74,NE,45,0.0,0.0,28,0.00,,SKC,0.00,VWS V14.01,2013-05-18 03:11:00,
2013-05-17 23:16:00,54.9,22.4,29.74,NE,45,0.0,0.0,28,0.00,,SKC,0.00,VWS V14.01,2013-05-18 03:16:00,
2013-05-17 23:21:00,54.7,22.2,29.74,NE,45,0.0,0.0,28,0.00,,SKC,0.00,VWS V14.01,2013-05-18 03:21:00,
2013-05-17 23:26:00,54.5,22.1,29.74,NE,45,0.0,0.0,28,0.00,,SKC,0.00,VWS V14.01,2013-05-18 03:26:00,
2013-05-17 23:31:00,54.3,22.8,29.74,NE,45,0.0,0.0,29,0.00,,SKC,0.00,VWS V14.01,2013-05-18 03:31:00,
2013-05-17 23:36:00,54.1,23.4,29.74,NE,45,0.0,0.0,30,0.00,,SKC,0.00,VWS V14.01,2013-05-18 03:36:00,
2013-05-17 23:41:00,54.0,23.2,29.74,NE,45,0.0,0.0,30,0.00,,SKC,0.00,VWS V14.01,2013-05-18 03:41:00,
2013-05-17 23:46:00,54.0,24.0,29.74,NE,45,0.0,0.0,31,0.00,,SKC,0.00,VWS V14.01,2013-05-18 03:46:00,
2013-05-17 23:51:00,53.8,23.9,29.74,NE,45,0.0,0.0,31,0.00,,SKC,0.00,VWS V14.01,2013-05-18 03:51:00,
2013-05-17 23:56:00,53.8,25.4,29.74,NE,45,0.0,0.0,33,0.00,,SKC,0.00,VWS V14.01,2013-05-18 03:56:00,